Home   Weather   Pau   Past weeks

Flag for France Past Weather in Pau, Aquitaine, France — Yesterday and Last 2 Weeks

Now
45 °F

Rain. Fog.


Feels Like: 35 °F
Forecast: 42 / 57 °F
Wind: 28 mph from Northwest

Location: Pau Airport

Current Time: Apr 30, 2017 at 4:59:57 pm

Latest Report: Apr 30, 2017 at 4:30 pm


Visibility: 2 mi

Pressure: 29.80 "Hg

Humidity: 87%

Dew Point: 41 °F

Location of PauLocation

Past Weather in Pau — Graph

°F

Pau Temperature Yesterday

Maximum temperature yesterday: 68 °F (at 2:30 pm)
Minimum temperature yesterday: 37 °F (at 6:30 am)
Average temperature yesterday: 55 °F

High & Low Weather Summary for the Past Weeks

 TemperatureHumidityPressure
High77 °F (Apr 23, 4:30 pm)100% (Apr 17, 8:00 am)30.36 "Hg (Apr 17, 8:00 am)
Low34 °F (Apr 21, 6:30 am)17% (Apr 20, 4:30 pm)29.56 "Hg (Apr 30, 11:00 am)
Average54 °F58%30.08 "Hg
* Reported Apr 15 4:00 pm — Apr 30 4:00 pm, Pau, Weather by CustomWeather, © 2017

Note: Actual official high and low records may vary slightly from our data, if they occured in-between our weather recording intervals... More about our weather records

Advertising

Pau Weather History for the Previous 24 Hours

Scroll right to see more
 ConditionsComfort  
Time TempWeatherWind HumidityBarometerVisibility
4:00 pm
Sun, Apr 30
46 °FLight rain. Mostly cloudy.25 mph87%29.77 "Hg4 mi
3:30 pm48 °FLight rain. Mostly cloudy.23 mph87%29.74 "HgN/A
3:00 pm48 °FRain. Partly sunny.24 mph94%29.68 "HgN/A
2:30 pm64 °FBroken clouds.5 mph56%29.62 "HgN/A
2:00 pm63 °FBroken clouds.10 mph68%29.59 "HgN/A
1:30 pm63 °FLight rain. More clouds than sun.20 mph56%29.59 "HgN/A
1:00 pm64 °FOvercast.17 mph49%29.59 "HgN/A
12:30 pm70 °FMostly cloudy.10 mph33%29.56 "HgN/A
12:00 pm70 °FSunny.3 mph35%29.56 "Hg10 mi
11:30 am70 °FPassing clouds.5 mph31%29.56 "HgN/A
11:00 am70 °FPassing clouds.10 mph40%29.56 "HgN/A
10:30 am64 °FPassing clouds.5 mph49%29.59 "HgN/A
10:00 am61 °FPassing clouds.6 mph59%29.59 "HgN/A
9:30 am59 °FPassing clouds.7 mph59%29.62 "HgN/A
9:00 am55 °FSunny.3 mph63%29.62 "Hg10 mi
8:30 am54 °FPassing clouds.3 mph67%29.65 "HgN/A
8:00 am52 °FSunny.2 mph72%29.65 "Hg10 mi
7:30 am48 °FSunny.5 mph76%29.65 "Hg10 mi
7:00 am46 °FPartly sunny.3 mph82%29.68 "HgN/A
6:30 am46 °FClear.2 mph76%29.68 "Hg10 mi
6:00 am46 °FPassing clouds.No wind76%29.68 "HgN/A
5:30 am48 °FClear.6 mph71%29.68 "Hg10 mi
5:00 am48 °FPassing clouds.5 mph71%29.68 "HgN/A
4:30 am50 °FPassing clouds.3 mph71%29.68 "HgN/A
4:00 am50 °FClear.3 mph67%29.68 "Hg10 mi
3:30 am52 °FPassing clouds.3 mph62%29.71 "HgN/A
3:00 am52 °FPartly cloudy.No wind62%29.71 "HgN/A
2:30 am54 °FPassing clouds.3 mph58%29.71 "HgN/A
2:00 am54 °FClear.6 mph58%29.71 "Hg10 mi
1:30 am52 °FClear.7 mph62%29.71 "Hg10 mi
1:00 am50 °FClear.3 mph62%29.74 "Hg10 mi
12:30 am52 °FPassing clouds.3 mph58%29.74 "HgN/A
12:00 am50 °FClear.5 mph62%29.74 "Hg10 mi
11:30 pm
Sat, Apr 29
52 °FClear.No wind54%29.74 "Hg10 mi
11:00 pm54 °FClear.3 mph51%29.74 "Hg10 mi
10:30 pm57 °FClear.7 mph44%29.74 "Hg10 mi
9:30 pm59 °FClear.5 mph39%29.74 "Hg10 mi
9:00 pm63 °FClear.5 mph34%29.74 "Hg10 mi
8:30 pm64 °FSunny.6 mph30%29.74 "Hg10 mi
8:00 pm66 °FOvercast.7 mph28%29.74 "HgN/A
7:30 pm66 °FMostly cloudy.5 mph30%29.77 "HgN/A
7:00 pm66 °FBroken clouds.3 mph30%29.77 "HgN/A
6:30 pm66 °FPassing clouds.5 mph28%29.77 "HgN/A
6:00 pm66 °FScattered clouds.6 mph30%29.77 "HgN/A
5:30 pm68 °FPassing clouds.5 mph28%29.77 "HgN/A
5:00 pm68 °FPassing clouds.7 mph26%29.77 "HgN/A
4:30 pm68 °FPassing clouds.5 mph28%29.80 "HgN/A
4:00 pm68 °FPassing clouds.6 mph26%29.80 "HgN/A
Weather by CustomWeather, © 2017

See weather overviewHow to use our weather pages